DW8248 Weather Reports


time (UTC)temp
F
wind
direction
speed
knots
gust
knots
rain 1hr
in
rain 24hr
in
rain mn
in
humidity
%
barometer
mb
20180820131029 85 344 0.9 4.3 0.00 0.00 0.00 79 1018.4
20180820130021 84 344 2.6 4.3 0.00 0.00 0.00 81 1018.3
20180820125032 83 11 1.7 3.5 0.00 0.00 0.00 83 1018.1
20180820124023 82 19 1.7 3.5 0.00 0.00 0.00 84 1018.0
20180820123031 82 347 2.6 4.3 0.00 0.00 0.00 85 1017.9
20180820122007 82 355 1.7 4.3 0.00 0.00 0.00 87 1017.9
20180820120951 81 355 1.7 3.5 0.00 0.00 0.00 89 1017.7
20180820115957 80 0 0.9 3.5 0.00 0.00 0.00 90 1017.6
20180820114928 80 5 1.7 6.1 0.00 0.00 0.00 90 1017.4
20180820113943 79 318 3.5 6.1 0.00 0.00 0.00 90 1017.4
20180820112907 79 317 2.6 4.3 0.00 0.00 0.00 90 1017.3
20180820111925 79 338 1.7 4.3 0.00 0.00 0.00 90 1017.1
20180820110940 79 355 1.7 3.5 0.00 0.00 0.00 90 1017.1
20180820105955 79 336 2.6 4.3 0.00 0.00 0.00 90 1017.0
20180820104923 79 319 2.6 4.3 0.00 0.00 0.00 90 1017.0
20180820103848 79 311 3.5 5.2 0.00 0.00 0.00 89 1016.9
20180820102818 79 315 4.3 7.0 0.00 0.00 0.00 89 1016.8
20180820101749 80 289 4.3 7.0 0.00 0.00 0.00 87 1016.7
20180820100739 80 277 2.6 4.3 0.00 0.00 0.00 87 1016.7
20180820095756 80 258 2.6 3.5 0.00 0.00 0.00 88 1016.4
20180820094730 80 250 2.6 3.5 0.00 0.00 0.00 90 1016.4
20180820093741 80 249 0.9 3.5 0.00 0.00 0.00 90 1016.3
20180820092712 79 122 0.9 2.6 0.00 0.00 0.00 88 1016.3
20180820091640 79 144 0.0 2.6 0.00 0.00 0.00 89 1016.2
20180820090640 79 144 0.9 2.6 0.00 0.00 0.00 90 1016.1
20180820085639 79 138 0.9 2.6 0.00 0.00 0.00 90 1015.9
20180820084610 78 142 0.0 0.0 0.00 0.00 0.00 90 1015.9
20180820083613 78 142 0.0 0.0 0.00 0.00 0.00 90 1015.8
20180820082539 78 142 0.0 0.0 0.00 0.00 0.00 90 1015.8
20180820081549 78 142 0.0 0.0 0.00 0.00 0.00 90 1015.9
20180820080540 78 142 0.0 0.0 0.00 0.00 0.00 90 1015.9
20180820075508 79 142 0.9 2.6 0.00 0.00 0.00 90 1015.9
20180820074503 79 144 0.9 1.7 0.00 0.00 0.00 90 1015.9
20180820073448 79 144 0.0 0.0 0.00 0.00 0.00 90 1016.1
20180820072507 79 144 0.0 0.0 0.00 0.00 0.00 90 1016.2
20180820071441 79 144 0.0 0.0 0.00 0.00 0.00 89 1016.3
20180820070405 79 144 0.0 0.0 0.00 0.00 0.00 89 1016.2
20180820065350 79 144 0.0 0.0 0.00 0.00 0.00 89 1016.2
20180820064327 79 144 0.0 0.0 0.00 0.00 0.00 88 1016.4
20180820063329 79 144 0.0 0.0 0.00 0.00 0.00 88 1016.6
20180820062333 79 144 0.0 0.0 0.00 0.00 0.00 88 1016.6
20180820061354 79 144 0.9 1.7 0.00 0.00 0.00 88 1016.7
20180820060339 79 144 0.9 1.7 0.00 0.00 0.00 88 1016.7
20180820055331 79 144 0.9 3.5 0.00 0.00 0.00 88 1016.9
20180820054310 79 142 1.7 3.5 0.00 0.00 0.00 88 1016.9
20180820053316 79 85 0.9 2.6 0.00 0.00 0.00 88 1016.9
20180820052317 79 79 0.9 1.7 0.00 0.00 0.00 87 1016.9
20180820051319 79 49 0.0 0.0 0.00 0.00 0.00 87 1017.1
20180820050328 79 9 0.0 0.0 0.00 0.00 0.00 85 1017.2
20180820045302 79 9 0.0 0.0 0.00 0.00 0.00 84 1017.3
20180820044322 79 9 0.0 0.0 0.00 0.00 0.00 84 1017.3
20180820043322 79 9 0.0 0.0 0.00 0.00 0.00 84 1017.4
20180820042258 79 9 0.0 0.0 0.00 0.00 0.00 84 1017.5
20180820041224 79 355 0.0 0.0 0.00 0.00 0.00 84 1017.6
20180820040153 79 355 0.9 2.6 0.00 0.00 0.00 84 1017.6
20180820035118 79 342 0.9 2.6 0.00 0.00 0.00 84 1017.6
20180820034133 79 355 0.9 2.6 0.00 0.00 0.00 84 1017.6
20180820033058 79 0 0.9 6.1 0.00 0.00 0.00 84 1017.7
20180820032104 79 349 3.5 6.1 0.00 0.00 0.00 85 1017.6
20180820031048 79 310 0.0 5.2 0.00 0.00 0.00 85 1017.7
20180820030105 79 0 0.0 0.0 0.00 0.00 0.00 85 1017.6
20180820025125 79 5 0.9 3.5 0.00 0.00 0.00 85 1017.4
20180820024058 78 17 0.9 3.5 0.00 0.00 0.00 85 1017.3
20180820023109 79 22 1.7 3.5 0.00 0.00 0.00 84 1017.1
20180820022107 79 5 2.6 6.1 0.00 0.00 0.00 84 1017.2
20180820021115 79 355 3.5 7.0 0.00 0.00 0.00 83 1017.2
20180820020045 79 340 3.5 7.0 0.00 0.00 0.00 83 1017.3
20180820015020 79 5 7.0 11.3 0.00 0.00 0.00 83 1017.3
20180820014034 80 324 8.7 12.2 0.00 0.00 0.00 83 1017.3
20180820013039 80 325 9.6 16.5 0.00 0.00 0.00 81 1017.3
20180820012005 80 307 11.3 16.5 0.00 0.00 0.00 80 1017.3
20180820011000 80 304 10.4 14.8 0.00 0.00 0.00 80 1017.3
20180820005938 80 305 9.6 14.8 0.00 0.00 0.00 81 1017.0
20180820004909 80 300 7.8 10.4 0.00 0.00 0.00 78 1017.0
20180820003851 80 277 7.0 10.4 0.00 0.00 0.00 79 1016.9
20180820002826 80 254 7.8 10.4 0.00 0.00 0.00 77 1016.7
20180820001839 80 232 5.2 8.7 0.00 0.00 0.00 80 1016.8
20180820000813 80 221 5.2 7.0 0.00 0.00 0.00 83 1016.7
20180819235816 80 229 4.3 7.8 0.00 0.00 0.00 82 1016.6
20180819234751 80 218 4.3 7.8 0.00 0.00 0.00 82 1016.2
20180819233715 80 187 3.5 7.0 0.00 0.00 0.00 82 1016.0
20180819232733 80 202 6.1 8.7 0.00 0.00 0.00 80 1015.9
20180819231747 80 227 6.1 9.6 0.00 0.00 0.00 78 1016.1
20180819230738 80 220 9.6 16.5 0.00 0.00 0.00 77 1015.9
20180819225725 81 225 13.0 22.6 0.00 0.00 0.00 75 1016.1
20180819224729 81 229 12.2 22.6 0.00 0.00 0.00 76 1016.1
20180819223730 85 138 7.0 12.2 0.00 0.00 0.00 81 1015.7
20180819222659 85 149 8.7 12.2 0.00 0.00 0.00 83 1015.6
20180819221658 85 143 7.8 13.0 0.00 0.00 0.00 82 1015.6
20180819220636 85 107 7.8 13.0 0.00 0.00 0.00 81 1015.5
20180819215648 85 113 7.8 13.0 0.00 0.00 0.00 79 1015.5
20180819214617 85 147 7.8 12.2 0.00 0.00 0.00 81 1015.5
20180819213626 86 137 6.1 12.2 0.00 0.00 0.00 81 1015.5
20180819212614 86 151 6.1 12.2 0.00 0.00 0.00 81 1015.4
20180819211606 85 132 7.8 12.2 0.00 0.00 0.00 82 1015.5
20180819210621 85 130 7.0 11.3 0.00 0.00 0.00 81 1015.5
20180819205550 85 109 6.1 11.3 0.00 0.00 0.00 81 1015.4
20180819204532 86 117 6.1 11.3 0.00 0.00 0.00 82 1015.1
20180819203543 86 111 5.2 10.4 0.00 0.00 0.00 81 1015.1
20180819202601 85 146 7.0 11.3 0.00 0.00 0.00 82 1015.2
20180819201530 85 120 6.1 11.3 0.00 0.00 0.00 81 1015.3
20180819200503 86 131 6.1 10.4 0.00 0.00 0.00 80 1015.4
20180819195511 86 105 5.2 8.7 0.00 0.00 0.00 79 1015.6
20180819194438 86 107 5.2 9.6 0.00 0.00 0.00 81 1015.5
20180819193418 86 121 5.2 9.6 0.00 0.00 0.00 80 1015.7
20180819192423 86 115 6.1 12.2 0.00 0.00 0.00 82 1015.7
20180819191422 85 133 7.8 12.2 0.00 0.00 0.00 81 1016.0
20180819190401 86 154 5.2 9.6 0.00 0.00 0.00 81 1015.9
20180819185400 85 120 7.0 12.2 0.00 0.00 0.00 82 1015.9
20180819184357 85 108 6.1 12.2 0.00 0.00 0.00 81 1016.0
20180819183320 85 101 6.1 12.2 0.00 0.00 0.00 81 1016.0
20180819182246 85 109 7.0 11.3 0.00 0.00 0.00 82 1016.2
20180819181238 84 112 7.0 11.3 0.00 0.00 0.00 83 1016.3
20180819180202 85 120 7.0 9.6 0.00 0.00 0.00 83 1016.4
20180819175133 85 96 4.3 10.4 0.00 0.00 0.00 82 1016.6
20180819174150 85 76 4.3 10.4 0.00 0.00 0.00 82 1016.6
20180819173201 85 107 4.3 8.7 0.00 0.00 0.00 83 1016.7
20180819172205 85 113 5.2 8.7 0.00 0.00 0.00 83 1016.8
20180819171217 85 97 4.3 8.7 0.00 0.00 0.00 83 1016.9
20180819170221 85 140 4.3 7.8 0.00 0.00 0.00 82 1016.9
20180819165203 85 100 4.3 8.7 0.00 0.00 0.00 82 1017.2
20180819164203 85 131 4.3 8.7 0.00 0.00 0.00 82 1017.3
20180819163208 85 80 3.5 9.6 0.00 0.00 0.00 82 1017.3
20180819162201 84 108 4.3 9.6 0.00 0.00 0.00 82 1017.4
20180819161127 85 121 3.5 7.0 0.00 0.00 0.00 81 1017.5
20180819160119 85 107 4.3 7.0 0.00 0.00 0.00 81 1017.5
20180819155100 85 95 3.5 7.0 0.00 0.00 0.00 81 1017.5
20180819154052 85 109 3.5 7.0 0.00 0.00 0.00 82 1017.8
20180819153101 85 126 3.5 6.1 0.00 0.00 0.00 81 1017.8
20180819152103 84 82 2.6 7.0 0.00 0.00 0.00 83 1017.7
20180819151123 84 123 3.5 7.0 0.00 0.00 0.00 82 1017.7
20180819150124 84 113 3.5 6.1 0.00 0.00 0.00 83 1017.7
20180819145057 85 89 1.7 6.1 0.00 0.00 0.00 81 1017.7
20180819144058 85 72 2.6 6.1 0.00 0.00 0.00 81 1017.7
20180819143050 85 67 1.7 4.3 0.00 0.00 0.00 80 1017.6
20180819142111 84 157 1.7 4.3 0.00 0.00 0.00 79 1017.5
20180819141112 84 167 0.9 4.3 0.00 0.00 0.00 82 1017.4
20180819140127 83 169 1.7 3.5 0.00 0.00 0.00 83 1017.3
20180819135116 83 180 1.7 3.5 0.00 0.00 0.00 84 1017.3
20180819134137 83 184 0.9 2.6 0.00 0.00 0.00 85 1017.2
20180819133143 82 186 1.7 3.5 0.00 0.00 0.00 86 1017.1
20180819132126 82 186 0.9 3.5 0.00 0.00 0.00 87 1017.1